Farmville, VA

3:42 PM EDT on September 30, 2016 (GMT -0400)
Farmville Regional

Weather History for KFVX - June, 2013

Change the Weather History Date:

Friday, June 21, 2013

  Actual Average Record
Temperature  
Mean Temperature 70 °F -  
Max Temperature 84 °F 85 °F 100 °F (1933)
Min Temperature 57 °F 62 °F 46 °F (1980)
Cooling Degree Days 6    
Growing Degree Days 20 (Base 50)    
Moisture  
Dew Point 54 °F    
Average Humidity 60    
Maximum Humidity 100    
Minimum Humidity 25    
Precipitation  
Precipitation 0.00 in - - ()
Sea Level Pressure  
Sea Level Pressure 30.26 in    
Wind  
Wind Speed 1 mph (NE)    
Max Wind Speed 7 mph    
Max Gust Speed -    
Visibility 10 miles    
Events      
Averages and records for this station are not official NWS values.
T = Trace of Precipitation, MM = Missing Value Source: NWS Daily Summary

Daily Weather History Graph

Daily Weather History Graph

Search for Another Location

Airport or City:

Trip Planner

Search our weather history database for the weather conditions in past years. The results will help you decide how hot, cold, wet, or windy it might be!

Date:

Astronomy

Jun. 21, 2013 Rise Set
Actual Time 5:53 AM EDT 8:37 PM EDT
Civil Twilight 5:22 AM EDT 9:08 PM EDT
Nautical Twilight 4:43 AM EDT 9:47 PM EDT
Astronomical Twilight 3:59 AM EDT 10:31 PM EDT
Moon 6:47 PM EDT (6/21) 4:05 AM EDT (6/21)
Length of Visible Light 15h 46m
Length of Day
14h 44m
Waxing Gibbous, 95% of the Moon is Illuminated
Jun 21
Waxing Gibbous
Jun 23
Full
Jun 30
Last Quarter
Jul 8
New
Jul 15
First Quarter

Hourly Weather History & Observations

Time (EDT) Temp. Heat Index Dew Point Humidity Pressure Visibility Wind Dir Wind Speed Gust Speed Precip Events Conditions
12:15 AM 66.2 °F - 51.8 °F 60% 30.26 in 7.0 mi Calm Calm - N/A   Scattered Clouds
12:35 AM 62.6 °F - 51.8 °F 68% 30.26 in 10.0 mi Calm Calm - N/A   Clear
12:55 AM 62.6 °F - 51.8 °F 68% 30.26 in 10.0 mi Calm Calm - N/A   Mostly Cloudy
1:15 AM 62.6 °F - 51.8 °F 68% 30.26 in 10.0 mi Calm Calm - N/A   Overcast
1:35 AM 62.6 °F - 51.8 °F 68% 30.26 in 10.0 mi Calm Calm - N/A   Overcast
1:55 AM 62.6 °F - 51.8 °F 68% 30.26 in 10.0 mi Calm Calm - N/A   Scattered Clouds
2:15 AM 60.8 °F - 51.8 °F 72% 30.26 in 10.0 mi Calm Calm - N/A   Clear
2:35 AM 60.8 °F - 57.2 °F 88% 30.26 in 10.0 mi Calm Calm - N/A   Mostly Cloudy
2:55 AM 62.6 °F - 57.2 °F 82% 30.26 in 10.0 mi Calm Calm - N/A   Overcast
3:15 AM 62.6 °F - 53.6 °F 72% 30.26 in 10.0 mi NNW 5.8 mph - N/A   Overcast
3:35 AM 60.8 °F - 55.4 °F 82% 30.26 in 10.0 mi Calm Calm - N/A   Scattered Clouds
3:55 AM 60.8 °F - 57.2 °F 88% 30.26 in 10.0 mi Calm Calm - N/A   Clear
4:15 AM 60.8 °F - 57.2 °F 88% 30.26 in 10.0 mi Calm Calm - N/A   Clear
4:35 AM 59.0 °F - 55.4 °F 88% 30.26 in 10.0 mi Calm Calm - N/A   Clear
4:55 AM 57.2 °F - 55.4 °F 94% 30.26 in 10.0 mi Calm Calm - N/A   Clear
5:15 AM 59.0 °F - 55.4 °F 88% 30.26 in 10.0 mi Calm Calm - N/A   Clear
5:35 AM 57.2 °F - 55.4 °F 94% 30.26 in 10.0 mi Calm Calm - N/A   Clear
5:55 AM 57.2 °F - 55.4 °F 94% 30.26 in 10.0 mi Calm Calm - N/A   Clear
6:15 AM 57.2 °F - 57.2 °F 100% 30.27 in 10.0 mi Calm Calm - N/A   Clear
6:35 AM 57.2 °F - 57.2 °F 100% 30.27 in 10.0 mi Calm Calm - N/A   Clear
6:55 AM 60.8 °F - 57.2 °F 88% 30.27 in 10.0 mi Calm Calm - N/A   Clear
7:15 AM 62.6 °F - 59.0 °F 88% 30.27 in 10.0 mi Calm Calm - N/A   Clear
7:35 AM 64.4 °F - 59.0 °F 83% 30.27 in 10.0 mi Calm Calm - N/A   Clear
7:55 AM 66.2 °F - 57.2 °F 73% 30.29 in 10.0 mi NNE 3.5 mph - N/A   Clear
8:15 AM 66.2 °F - 55.4 °F 68% 30.29 in 10.0 mi NE 3.5 mph - N/A   Clear
8:35 AM 69.8 °F - 53.6 °F 56% 30.29 in 10.0 mi Calm Calm - N/A   Clear
8:55 AM 71.6 °F - 53.6 °F 53% 30.29 in 10.0 mi Calm Calm - N/A   Clear
9:15 AM 71.6 °F - 51.8 °F 50% 30.29 in 10.0 mi Calm Calm - N/A   Clear
9:35 AM 71.6 °F - 48.2 °F 43% 30.28 in 10.0 mi NNE 3.5 mph - N/A   Clear
9:55 AM 73.4 °F - 48.2 °F 41% 30.28 in 10.0 mi Calm Calm - N/A   Clear
10:15 AM 73.4 °F - 50.0 °F 44% 30.28 in 10.0 mi Calm Calm - N/A   Clear
10:35 AM 75.2 °F - 50.0 °F 41% 30.28 in 10.0 mi ENE 4.6 mph - N/A   Clear
10:55 AM 75.2 °F - 50.0 °F 41% 30.28 in 10.0 mi NE 3.5 mph - N/A   Clear
11:15 AM 78.8 °F - 51.8 °F 39% 30.28 in 10.0 mi East 3.5 mph - N/A   Clear
11:35 AM 78.8 °F - 51.8 °F 39% 30.28 in 10.0 mi NE 6.9 mph - N/A   Clear
11:55 AM 78.8 °F - 51.8 °F 39% 30.28 in 10.0 mi NE 6.9 mph - N/A   Clear
12:15 PM 78.8 °F - 51.8 °F 39% 30.28 in 10.0 mi NNE 6.9 mph - N/A   Clear
12:35 PM 78.8 °F - 51.8 °F 39% 30.28 in 10.0 mi NE 3.5 mph - N/A   Clear
12:55 PM 78.8 °F - 53.6 °F 42% 30.27 in 10.0 mi North 4.6 mph - N/A   Clear
1:15 PM 80.6 °F 80.3 °F 53.6 °F 39% 30.27 in 10.0 mi North 4.6 mph - N/A   Clear
1:35 PM 82.4 °F 81.4 °F 53.6 °F 37% 30.27 in 10.0 mi ENE 3.5 mph - N/A   Clear
1:55 PM 82.4 °F 81.7 °F 55.4 °F 39% 30.27 in 10.0 mi North 6.9 mph - N/A   Clear
2:15 PM 80.6 °F 80.3 °F 53.6 °F 39% 30.26 in 10.0 mi NNE 6.9 mph - N/A   Clear
2:35 PM 82.4 °F 81.4 °F 53.6 °F 37% 30.26 in 10.0 mi NNE 5.8 mph - N/A   Clear
2:55 PM 82.4 °F 81.4 °F 53.6 °F 37% 30.25 in 10.0 mi NE 5.8 mph - N/A   Clear
3:15 PM 82.4 °F - 51.8 °F 35% 30.25 in 10.0 mi Calm Calm - N/A   Clear
3:35 PM 84.2 °F - 51.8 °F 33% 30.25 in 10.0 mi East 5.8 mph - N/A   Clear
3:55 PM 84.2 °F - 50.0 °F 30% 30.24 in 10.0 mi Calm Calm - N/A   Clear
4:15 PM 84.2 °F - 51.8 °F 33% 30.24 in 10.0 mi NE 5.8 mph - N/A   Clear
4:35 PM 84.2 °F - 51.8 °F 33% 30.24 in 10.0 mi NE 3.5 mph - N/A   Clear
4:55 PM 84.2 °F - 50.0 °F 30% 30.23 in 10.0 mi ENE 4.6 mph - N/A   Clear
5:15 PM 84.2 °F - 48.2 °F 29% 30.23 in 10.0 mi SE 4.6 mph - N/A   Clear
5:35 PM 84.2 °F - 46.4 °F 27% 30.23 in 10.0 mi East 4.6 mph - N/A   Clear
5:55 PM 84.2 °F - 44.6 °F 25% 30.23 in 10.0 mi East 4.6 mph - N/A   Clear
6:15 PM 84.2 °F - 44.6 °F 25% 30.23 in 10.0 mi East 5.8 mph - N/A   Clear
6:35 PM 82.4 °F - 44.6 °F 26% 30.22 in 10.0 mi East 5.8 mph - N/A   Clear
6:55 PM 82.4 °F - 46.4 °F 28% 30.22 in 10.0 mi East 3.5 mph - N/A   Clear
7:15 PM 82.4 °F - 51.8 °F 35% 30.22 in 10.0 mi Calm Calm - N/A   Clear
7:35 PM 75.2 °F - 53.6 °F 47% 30.22 in 10.0 mi Calm Calm - N/A   Clear
7:55 PM 75.2 °F - 53.6 °F 47% 30.22 in 10.0 mi Calm Calm - N/A   Clear
8:15 PM 73.4 °F - 53.6 °F 50% 30.22 in 10.0 mi Calm Calm - N/A   Clear
8:35 PM 71.6 °F - 57.2 °F 60% 30.22 in 10.0 mi Calm Calm - N/A   Clear
8:55 PM 69.8 °F - 59.0 °F 68% 30.22 in 10.0 mi Calm Calm - N/A   Clear
9:15 PM 69.8 °F - 57.2 °F 64% 30.22 in 10.0 mi Calm Calm - N/A   Clear
9:35 PM 66.2 °F - 60.8 °F 83% 30.22 in 10.0 mi Calm Calm - N/A   Clear
9:55 PM 66.2 °F - 60.8 °F 83% 30.23 in 10.0 mi Calm Calm - N/A   Clear
10:15 PM 66.2 °F - 62.6 °F 88% 30.24 in 10.0 mi Calm Calm - N/A   Clear
10:35 PM 69.8 °F - 64.4 °F 83% 30.23 in 10.0 mi Calm Calm - N/A   Clear
10:55 PM 69.8 °F - 64.4 °F 83% 30.23 in 10.0 mi Calm Calm - N/A   Clear
11:15 PM 66.2 °F - 64.4 °F 94% 30.24 in 10.0 mi North 3.5 mph - N/A   Clear
11:35 PM 68.0 °F - 64.4 °F 88% 30.25 in 10.0 mi NNE 3.5 mph - N/A   Clear
11:55 PM 66.2 °F - 64.4 °F 94% 30.25 in 10.0 mi Calm Calm - N/A   Clear